Regional Weather Roundup
Issued by NWS

Home | Current Version | Previous Version | Graphics & Text | Print | Product List | Glossary On
Versions: 1 2 3 4 5 6 7 8 9 10 11 12 13 14 15 16 17 18 19 20 21 22 23 24 25 26 27 28 29 30 31 32 33 34 35 36 37 38 39 40 41 42 43 44 45 46 47 48 49 50
000
ASUS43 KDTX 031010
RWRMI
MICHIGAN HOURLY REGIONAL WEATHER ROUNDUP
NATIONAL WEATHER SERVICE DETROIT/PONTIAC MI
600 AM EDT TUE MAY 03 2016

NOTE: "FAIR" INDICATES FEW OR NO CLOUDS BELOW 12,000 FEET WITH NO
SIGNIFICANT WEATHER AND/OR OBSTRUCTION TO VISIBILITY.

MIZ047>049-052>055-059>063-066>070-074>076-081>083-031100-
SOUTHEAST LOWER MICHIGAN

CITY           SKY/WX    TMP DP  RH WIND       PRES   REMARKS
ALMA           FOG       35  35 100 W5        29.94S VSB 1/2 WCI  31
ANN ARBOR      PTCLDY    39  38  96 CALM      29.93S FOG
BAD AXE        CLEAR     32  31  96 CALM      29.95S
CARO           CLEAR     31  30  96 CALM      29.94F
DETROIT CITY   CLOUDY    42  39  89 CALM      29.94F
DETROIT        FOG       44  43  96 CALM      29.94F VSB 1
FLINT          FOG       35  32  88 CALM      29.96S VSB 1/2
GROSSE ILE     FOG       43  39  87 CALM      29.93S VSB<1/4
HILLSDALE      CLOUDY    46  45  95 N3        29.93F
HOWELL         CLEAR     39  39  97 CALM      29.95S FOG

CITY           SKY/WX    TMP DP  RH WIND       PRES   REMARKS
JACKSON        PTCLDY    44  42  93 CALM      29.94F
LAMBERTVILLE   CLOUDY    47  46  94 CALM      29.94S FOG
LANSING        CLEAR     38  37  97 CALM      29.95S
LAPEER         FAIR      33  32  99 CALM      29.95S
MASON          CLEAR     39  38  96 CALM      29.94F FOG
MONROE         FOG       45  45 100 S3        29.93S VSB 1
MT. CLEMENS    CLOUDY    40  40  99 NW2       29.93F
PONTIAC        PTCLDY    37  35  92 CALM      29.93S FOG
PORT HOPE        N/A     37  33  85 SW6       29.92F WCI  32
PORT HURON     CLOUDY    37  37 100 CALM      29.94S
TRI CITIES     CLEAR     41  31  67 S3        29.95S
MIDLAND        FAIR      33  32  96 CALM      29.93F
TROY           PTCLDY    40  38  92 CALM      29.96S
SAGINAW HB     CLEAR     34  32  93 S5        29.94S WCI  30
$$
MIZ043>046-050>051-056>058-064>065-071>073-077>080-031100-
SOUTHWEST LOWER MICHIGAN

CITY           SKY/WX    TMP DP  RH WIND       PRES   REMARKS
BATTLE CREEK   PTCLDY    41  39  93 CALM      29.95F
BENTON HARBOR  PTCLDY    36  33  89 CALM      29.96F
BIG RAPIDS     CLEAR     35  32  88 CALM      29.93F
COLDWATER      CLOUDY    47  46  99 CALM      29.94F
FREMONT        FAIR      37  37 100 CALM      29.94S
HOLLAND        PTCLDY    38  36  92 W3        29.96S
GRAND RAPIDS   PTCLDY    38  36  92 CALM      29.95F
IONIA          FAIR      39  38  97 W6        29.93F WCI  35
KALAMAZOO      CLEAR     42  39  89 CALM      29.95F
LUDINGTON      CLEAR     32  32 100 CALM      29.94F
MARSHALL       FOG       40  40  97 CALM      29.94F VSB 1/4
MOUNT PLEASANT CLEAR     36  35  96 CALM      29.93S
MUSKEGON       PTCLDY    35  31  85 CALM      29.95F
SOUTH HAVEN    FOG       34  34  99 CALM      29.96F VSB 3/4
$$
MIZ016>042-031100-
NORTHERN LOWER MICHIGAN

CITY           SKY/WX    TMP DP  RH WIND       PRES   REMARKS
ALPENA         CLEAR     32  30  92 CALM      29.92S
BEAVER ISLAND  CLEAR     31  30  94 CALM      29.90F
BELLAIRE       CLEAR     31  30  95 CALM      29.92F
CADILLAC       CLEAR     30  28  91 CALM      29.91F
CHARLEVOIX     CLEAR     36  33  87 CALM      29.93F
FRANKFORT      CLEAR     33  32  94 CALM      29.92F
GAYLORD        CLEAR     37  28  70 CALM      29.91F
GRAYLING       CLEAR     28  27  93 CALM      29.92F
HARBOR SPRINGS CLEAR     35  30  83 CALM      29.90F
HOUGHTON LAKE  CLEAR     33  31  92 CALM      29.92F
MANISTEE       CLEAR     30  27  86 E3        29.93F
OSCODA         CLEAR     33  30  87 SW3       29.92S
PELLSTON       CLEAR     28  26  92 CALM      29.91F
ROGERS CITY    CLEAR     34  30  83 CALM      29.91F
TRAVERSE CITY  CLEAR     34  30  85 S3        29.91F
$$
MIZ007>008-015-031100-
EASTERN UPPER MICHIGAN

CITY           SKY/WX    TMP DP  RH WIND       PRES   REMARKS
KINROSS          N/A     32  30  93 CALM      29.88F
MACKINAC ISLAN CLEAR     37  31  78 SW6       29.89F WCI  32
NEWBERRY       CLEAR     33  31  91 S6        29.87F WCI  27
S. S. MARIE    PTCLDY    37  32  82 CALM      29.88F
MUNISING         N/A     37  31  78 SW6       29.84F WCI  32
$$
MIZ004>006-011>014-085-031100-
CENTRAL UPPER MICHIGAN

CITY           SKY/WX    TMP DP  RH WIND       PRES   REMARKS
MANISTIQUE     CLEAR     32  30  94 CALM      29.87F
ESCANABA       CLEAR     32  28  86 W3        29.86F
MENOMINEE      CLEAR     46  34  61 SW6       29.87F
SAWYER-GWINN   PTCLDY    30  27  86 SW3       29.83F
$$
MIZ001>003-009>011-084-031100-
WESTERN UPPER MICHIGAN

CITY           SKY/WX    TMP DP  RH WIND       PRES   REMARKS
IRON MOUNTAIN  CLEAR     31  27  85 CALM      29.85F
HOUGHTON       CLOUDY    48  29  47 W12       29.79F
COPPER HARBOR    N/A     50  34  54 SW12      29.76F
IRONWOOD         N/A     48  32  53 SW7       29.82F
$$

ABBREVIATIONS USED IN REMARKS
   TC - TEMPERATURE IN CELSIUS
  WCI - WIND CHILL INDEX
   HX - HEAT INDEX
  VSB - VISIBILITY





USA.gov is the U.S. government's official web portal to all federal, state and local government web resources and services.